| time (UTC) | temp F | wind direction | speed knots | gust knots | rain 1hr in | rain 24hr in | rain mn in | humidity % | barometer mb |
| 20260506113024 | 74 | 159 | 0.9 | 1.7 | 0.00 | 0.00 | 0.00 | 100 | 1009.4 |
| 20260506111523 | 74 | 160 | 0.0 | 1.7 | 0.00 | 0.00 | 0.00 | 100 | 1009.2 |
| 20260506110023 | 74 | 160 | 0.0 | 1.7 | 0.00 | 0.00 | 0.00 | 100 | 1009.2 |
| 20260506104526 | 74 | 160 | 0.0 | 1.7 | 0.00 | 0.00 | 0.00 | 100 | 1009.1 |
| 20260506103025 | 74 | 160 | 0.0 | 2.6 | 0.00 | 0.00 | 0.00 | 100 | 1009.0 |
| 20260506101523 | 74 | 159 | 0.0 | 1.7 | 0.00 | 0.00 | 0.00 | 100 | 1009.0 |
| 20260506100020 | 74 | 162 | 0.0 | 4.3 | 0.00 | 0.00 | 0.00 | 100 | 1008.8 |
| 20260506094520 | 74 | 157 | 0.0 | 2.6 | 0.00 | 0.00 | 0.00 | 100 | 1008.6 |
| 20260506093018 | 74 | 166 | 1.7 | 2.6 | 0.00 | 0.00 | 0.00 | 100 | 1008.6 |
| 20260506091518 | 75 | 167 | 0.0 | 2.6 | 0.00 | 0.00 | 0.00 | 99 | 1008.8 |
| 20260506090021 | 75 | 166 | 0.9 | 3.5 | 0.00 | 0.00 | 0.00 | 99 | 1008.8 |
| 20260506084531 | 75 | 173 | 0.9 | 3.5 | 0.00 | 0.00 | 0.00 | 99 | 1008.7 |
| 20260506083013 | 75 | 172 | 0.9 | 5.2 | 0.00 | 0.00 | 0.00 | 99 | 1008.6 |
| 20260506081516 | 75 | 161 | 0.0 | 1.7 | 0.00 | 0.00 | 0.00 | 99 | 1008.7 |
| 20260506073011 | 75 | 159 | 1.7 | 5.2 | 0.00 | 0.00 | 0.00 | 99 | 1008.8 |
| 20260506071509 | 75 | 134 | 0.9 | 4.3 | 0.00 | 0.00 | 0.00 | 99 | 1009.1 |
| 20260506061505 | 75 | 192 | 0.0 | 3.5 | 0.00 | 0.00 | 0.00 | 98 | 1009.4 |
| 20260506050158 | 76 | 121 | 1.7 | 4.3 | 0.00 | 0.00 | 0.00 | 96 | 1009.3 |
| 20260506044558 | 77 | 166 | 1.7 | 3.5 | 0.00 | 0.00 | 0.00 | 95 | 1009.3 |
| 20260506043101 | 77 | 138 | 2.6 | 7.8 | 0.00 | 0.00 | 0.00 | 95 | 1008.9 |
| 20260506041557 | 77 | 171 | 2.6 | 9.6 | 0.00 | 0.00 | 0.00 | 95 | 1008.8 |
| 20260506040054 | 77 | 134 | 2.6 | 9.6 | 0.00 | 0.00 | 0.00 | 94 | 1008.7 |
| 20260506034558 | 77 | 138 | 4.3 | 13.0 | 0.00 | 0.00 | 0.00 | 94 | 1008.5 |
| 20260506033109 | 77 | 136 | 4.3 | 10.4 | 0.00 | 0.00 | 0.00 | 94 | 1008.4 |
| 20260506031554 | 78 | 168 | 1.7 | 7.0 | 0.00 | 0.00 | 0.00 | 94 | 1008.3 |
| 20260506030100 | 78 | 144 | 0.9 | 6.1 | 0.00 | 0.00 | 0.00 | 93 | 1007.9 |
| 20260506024607 | 79 | 139 | 2.6 | 7.0 | 0.00 | 0.00 | 0.00 | 93 | 1007.8 |
| 20260506023057 | 79 | 115 | 1.7 | 5.2 | 0.00 | 0.00 | 0.00 | 92 | 1007.8 |
| 20260506021557 | 80 | 103 | 1.7 | 4.3 | 0.00 | 0.00 | 0.00 | 91 | 1007.6 |
| 20260506020050 | 80 | 113 | 0.9 | 5.2 | 0.00 | 0.00 | 0.00 | 91 | 1007.5 |
| 20260506014550 | 80 | 151 | 0.9 | 4.3 | 0.00 | 0.00 | 0.00 | 91 | 1007.4 |
| 20260506013052 | 81 | 136 | 1.7 | 5.2 | 0.00 | 0.00 | 0.00 | 90 | 1007.1 |
| 20260506011610 | 81 | 144 | 1.7 | 4.3 | 0.00 | 0.00 | 0.00 | 89 | 1007.0 |
| 20260506010048 | 82 | 162 | 1.7 | 6.1 | 0.00 | 0.00 | 0.00 | 88 | 1006.8 |
| 20260506004547 | 82 | 123 | 2.6 | 7.0 | 0.00 | 0.00 | 0.00 | 87 | 1006.6 |
| 20260506003047 | 83 | 167 | 1.7 | 6.1 | 0.00 | 0.00 | 0.00 | 86 | 1006.5 |
| 20260506001546 | 84 | 136 | 2.6 | 7.8 | 0.00 | 0.00 | 0.00 | 85 | 1006.4 |
| 20260506000053 | 85 | 121 | 2.6 | 7.0 | 0.00 | 0.00 | 0.00 | 84 | 1006.1 |
| 20260505234545 | 85 | 124 | 1.7 | 6.1 | 0.00 | 0.00 | 0.00 | 83 | 1006.1 |
| 20260505233045 | 85 | 128 | 2.6 | 7.0 | 0.00 | 0.00 | 0.00 | 83 | 1006.1 |
| 20260505230042 | 86 | 136 | 1.7 | 7.0 | 0.00 | 0.00 | 0.00 | 82 | 1006.0 |
| 20260505224541 | 86 | 164 | 3.5 | 9.6 | 0.00 | 0.00 | 0.00 | 81 | 1006.1 |
| 20260505223016 | 86 | 167 | 1.7 | 7.0 | 0.00 | 0.00 | 0.00 | 81 | 1006.2 |
| 20260505221536 | 86 | 206 | 2.6 | 10.4 | 0.00 | 0.00 | 0.00 | 81 | 1006.3 |
| 20260505220051 | 86 | 171 | 1.7 | 6.1 | 0.00 | 0.00 | 0.00 | 81 | 1006.4 |
| 20260505214632 | 86 | 202 | 1.7 | 7.0 | 0.00 | 0.00 | 0.00 | 82 | 1006.6 |
| 20260505213032 | 86 | 179 | 4.3 | 8.7 | 0.00 | 0.00 | 0.00 | 82 | 1006.8 |
| 20260505211534 | 85 | 150 | 2.6 | 8.7 | 0.00 | 0.00 | 0.00 | 83 | 1007.0 |
| 20260505210025 | 85 | 169 | 1.7 | 10.4 | 0.00 | 0.00 | 0.00 | 83 | 1007.1 |
| 20260505204525 | 85 | 134 | 2.6 | 8.7 | 0.00 | 0.00 | 0.00 | 83 | 1007.5 |
| 20260505201520 | 84 | 217 | 3.5 | 10.4 | 0.00 | 0.00 | 0.00 | 83 | 1007.8 |
| 20260505200018 | 84 | 182 | 3.5 | 10.4 | 0.00 | 0.00 | 0.00 | 84 | 1008.0 |
| 20260505194521 | 84 | 148 | 2.6 | 8.7 | 0.00 | 0.00 | 0.00 | 85 | 1008.3 |
| 20260505193021 | 84 | 175 | 1.7 | 5.2 | 0.00 | 0.00 | 0.00 | 83 | 1008.4 |
| 20260505191514 | 83 | 215 | 3.5 | 8.7 | 0.00 | 0.00 | 0.00 | 84 | 1008.7 |
| 20260505190010 | 82 | 169 | 4.3 | 8.7 | 0.00 | 0.00 | 0.00 | 86 | 1008.9 |
| 20260505184505 | 81 | 138 | 3.5 | 8.7 | 0.00 | 0.00 | 0.00 | 87 | 1009.2 |
| 20260505183003 | 80 | 205 | 3.5 | 9.6 | 0.00 | 0.00 | 0.00 | 88 | 1009.4 |
| 20260505181503 | 80 | 214 | 3.5 | 7.8 | 0.00 | 0.00 | 0.00 | 88 | 1009.3 |
| 20260505180100 | 79 | 166 | 2.6 | 7.8 | 0.00 | 0.00 | 0.00 | 90 | 1009.3 |
| 20260505174557 | 79 | 201 | 2.6 | 8.7 | 0.00 | 0.00 | 0.00 | 90 | 1009.7 |
| 20260505173055 | 78 | 146 | 1.7 | 7.8 | 0.00 | 0.00 | 0.00 | 91 | 1009.8 |
| 20260505171552 | 78 | 202 | 3.5 | 8.7 | 0.00 | 0.00 | 0.00 | 91 | 1009.8 |
| 20260505170050 | 77 | 213 | 5.2 | 9.6 | 0.00 | 0.00 | 0.00 | 92 | 1009.9 |
| 20260505164557 | 76 | 232 | 6.1 | 9.6 | 0.00 | 0.00 | 0.00 | 94 | 1009.9 |
| 20260505163046 | 76 | 215 | 4.3 | 8.7 | 0.00 | 0.00 | 0.00 | 94 | 1009.9 |
| 20260505153040 | 74 | 206 | 4.3 | 7.8 | 0.00 | 0.00 | 0.00 | 97 | 1010.0 |
| 20260505151535 | 73 | 202 | 3.5 | 9.6 | 0.00 | 0.00 | 0.00 | 98 | 1010.0 |
| 20260505124535 | 72 | 184 | 2.6 | 9.6 | 0.00 | 0.00 | 0.00 | 97 | 1009.1 |
| 20260505123025 | 72 | 194 | 1.7 | 8.7 | 0.00 | 0.00 | 0.00 | 97 | 1008.9 |
| 20260505121523 | 72 | 174 | 3.5 | 8.7 | 0.00 | 0.00 | 0.00 | 97 | 1008.9 |
| 20260505120030 | 72 | 188 | 3.5 | 11.3 | 0.00 | 0.00 | 0.00 | 97 | 1008.9 |
| 20260505114522 | 71 | 188 | 3.5 | 13.0 | 0.00 | 0.00 | 0.00 | 98 | 1008.8 |